Retour au catalogue

SL-8 DEB

ActifLEO
NORAD 22132·DEBRIS·🇷🇺 Russia

Lancé Feb 12, 1991 depuis Plesetsk Cosmodrome

Loading…

Prochains Passages (prochaines 24 heures)

TLE

FraisSource: Space-Track

Époque: Sep 14, 2026, 06:04 UTC

1 22132U 91009CR  26257.25303370  .00000023  00000-0  37204-3 0  9998
2 22132  74.0582 194.2850 0142475 256.4133 257.1552 12.16952832577975

Suivez SL-8 DEB en temps réel avec AllMySat

Download on the App Store